This is the latest recevied weather packets stored in our database for station/object KE5WTH-14. If no packets are shown the sender has not sent any weather packets the latest 10 day(s).
| Time | Temp. | Humidity | Pressure | Rain* | Wind** | Luminosity | Snow |
|---|---|---|---|---|---|---|---|
| 1778073754 | 11.11° C | 87% | 1013.7 hPa | 0 mm | - | 65 W/m² | - |
| 1778073693 | 11.11° C | 87% | 1013.6 hPa | 0 mm | - | 48 W/m² | - |
| 1778073635 | 11.11° C | 87% | 1013.7 hPa | 0 mm | - | 48 W/m² | - |
| 1778073573 | 11.11° C | 87% | 1013.7 hPa | 0 mm | - | 48 W/m² | - |
| 1778073513 | 11.11° C | 87% | 1013.7 hPa | 0 mm | - | 44 W/m² | - |
| 1778073453 | 11.11° C | 87% | 1013.7 hPa | 0 mm | - | 44 W/m² | - |
| 1778073394 | 11.11° C | 87% | 1013.7 hPa | 0 mm | - | 44 W/m² | - |
| 1778073333 | 11.11° C | 87% | 1013.6 hPa | 0 mm | - | 33 W/m² | - |
| 1778073274 | 11.11° C | 87% | 1013.6 hPa | 0 mm | - | 33 W/m² | - |
| 1778073213 | 11.11° C | 87% | 1013.6 hPa | 0 mm | - | 33 W/m² | - |
| 1778073153 | 11.11° C | 87% | 1013.5 hPa | 0 mm | - | 32 W/m² | - |
| 1778073092 | 11.11° C | 87% | 1013.5 hPa | 0 mm | - | 35 W/m² | - |
| 1778073033 | 11.11° C | 87% | 1013.4 hPa | 0 mm | - | 37 W/m² | - |
| 1778072974 | 11.11° C | 87% | 1013.5 hPa | 0 mm | - | 37 W/m² | - |
| 1778072914 | 11.11° C | 87% | 1013.5 hPa | 0 mm | - | 39 W/m² | - |
| 1778072854 | 11.11° C | 87% | 1013.5 hPa | 0 mm | - | 39 W/m² | - |
| 1778072793 | 11.11° C | 87% | 1013.4 hPa | 0 mm | - | 41 W/m² | - |
| 1778072733 | 11.11° C | 87% | 1013.3 hPa | 0 mm | - | 41 W/m² | - |
| 1778072671 | 11.11° C | 87% | 1013.3 hPa | 0 mm | - | 39 W/m² | - |
| 1778072609 | 11.11° C | 87% | 1013.1 hPa | 0 mm | - | 39 W/m² | - |
| 1778072546 | 11.11° C | 87% | 1013.1 hPa | 0 mm | - | 39 W/m² | - |
| 1778072485 | 11.11° C | 87% | 1013.3 hPa | 0 mm | - | 33 W/m² | - |
| 1778072420 | 11.11° C | 87% | 1013.3 hPa | 0 mm | - | 30 W/m² | - |
| 1778072358 | 11.11° C | 86% | 1013.5 hPa | 0 mm | - | 26 W/m² | - |
| 1778072315 | 11.11° C | 86% | 1013.5 hPa | 0 mm | - | 21 W/m² | - |
* Rain latest hour (hover to see other rain measurements)
** Current wind speed in m/s (hover to see current wind gust speed)